Regional Weather Roundup
Issued by NWS

Home | Current Version | Previous Version | Graphics & Text | Print | Product List | Glossary On
Versions: 1 2 3 4 5 6 7 8 9 10 11 12 13 14 15 16 17 18 19 20 21 22 23 24 25 26 27 28 29 30 31 32 33 34 35 36 37 38 39 40 41 42 43 44 45 46 47 48 49 50
000
ASUS45 KCYS 181910
RWRWY

WYOMING REGIONAL WEATHER ROUNDUP
NATIONAL WEATHER SERVICE CHEYENNE WY
1200 PM MST SAT NOV 18 2017

NOTE:  "FAIR" INDICATES FEW OR NO CLOUDS BELOW 12,000 FEET
WITH NO SIGNIFICANT WEATHER AND/OR OBSTRUCTIONS TO VISIBILITY.

WYZ001-182000-
YELLOWSTONE NATIONAL PARK

CITY           SKY/WX    TMP DP  RH WIND       PRES   REMARKS
LK YELLOWSTONE NOT AVBL
W YELLOWSTONE  NOT AVBL

$$
WYZ002>013-054>058-071-098>099-182000-
NORTHERN WYOMING

CITY           SKY/WX    TMP DP  RH WIND       PRES   REMARKS
JACKSON        NOT AVBL
CODY           FAIR      39  13  34 W6        30.17F WCI  35
GREYBULL       FAIR      38  19  46 S5        30.21F WCI  34
WORLAND        FAIR      39  18  42 VRB3      30.21F
SHERIDAN       FAIR      43  16  33 E5        30.16F
BUFFALO        FAIR      33  12  41 S12       30.15F WCI  24
GILLETTE       FAIR      39  13  34 NW12G21   30.16F WCI  32
HULETT         CLOUDY    37  19  48 W10G17    30.13F WCI  30
NEWCASTLE      FAIR      37  12  35 NW22      30.17F WCI  27

$$
WYZ014>020-022>026-101>103-182000-
CENTRAL WYOMING

CITY           SKY/WX    TMP DP  RH WIND       PRES   REMARKS
BIG PINEY      FAIR      24  14  65 CALM      30.34S
PINEDALE       FAIR      28  14  54 W10       30.32F WCI  19
DUBOIS         FAIR      28  10  47 N24G37    30.18F WCI  14
LANDER         FAIR      40   7  25 SE9       30.19F WCI  34
RIVERTON       FAIR      38  12  34 W15       30.18F WCI  29
CASPER         FAIR      30  20  66 SW21G32   30.21F WCI  17
DOUGLAS        FAIR      33  23  66 W20G28    30.19F WCI  21

$$
WYZ021-027>030-104>119-182000-
SOUTHERN WYOMING

CITY           SKY/WX    TMP DP  RH WIND       PRES   REMARKS
EVANSTON       FAIR      20  16  84 SW10      30.38S WCI   9
FORT BRIDGER   FAIR      26  18  70 W10       30.39F WCI  16
ROCK SPRINGS   FAIR      24  16  71 W23       30.34F WCI   9
DIXON          FAIR      27  16  65 S8        30.41F WCI  18
RAWLINS        LGT SNOW  25  16  68 SW23G33   30.29R WCI  10
SARATOGA       FAIR      28  16  59 NE3       30.31F
LARAMIE        FAIR      29  13  51 W21G26    30.19F WCI  16
CHEYENNE       FAIR      35  13  40 NW14G23   30.20F WCI  26
TORRINGTON     FAIR      41  17  38 W13G21    30.21F
PINE BLUFFS    FAIR      36  14  41 MISG      30.22F

$$



USA.gov is the U.S. government's official web portal to all federal, state and local government web resources and services.